Bangor, ME

5:35 AM EDT on July 27, 2017 (GMT -0400)
Bangor International

Weather History for KBGR - March, 2014

Change the Weather History Date:

Saturday, March 8, 2014

  Actual Average Record
Temperature  
Mean Temperature 28 °F 27 °F  
Max Temperature 43 °F 37 °F 59 °F (2012)
Min Temperature 13 °F 17 °F -11 °F (2007)
Degree Days  
Heating Degree Days 37 38  
Month to date heating degree days 396 311  
Since 1 July heating degree days 6148 5957  
Cooling Degree Days 0 0  
Month to date cooling degree days 0 0  
Year to date cooling degree days 0 0  
Moisture  
Dew Point 17 °F    
Average Humidity 72    
Maximum Humidity 100    
Minimum Humidity 43    
Precipitation  
Precipitation 0.00 in 0.10 in 1.49 in (2008)
Month to date precipitation T 0.78  
Year to date precipitation 5.17 6.19  
Snow  
Snow 0.00 in 0.40 in 12.00 in (1996)
Month to date snowfall T 3.7  
Since 1 July snowfall 63.2 54.4  
Snow Depth 5.00 in    
Sea Level Pressure  
Sea Level Pressure 29.80 in    
Wind  
Wind Speed 3 mph (NW)    
Max Wind Speed 22 mph    
Max Gust Speed 26 mph    
Visibility 6 miles    
Events Fog    
T = Trace of Precipitation, MM = Missing Value Source: NWS Daily Summary

Daily Weather History Graph

Daily Weather History Graph

Search for Another Location

Airport or City:

Trip Planner

Search our weather history database for the weather conditions in past years. The results will help you decide how hot, cold, wet, or windy it might be!

Date:

Astronomy

Mar. 08, 2014 Rise Set
Actual Time 6:00 AM EST 5:32 PM EST
Civil Twilight 5:31 AM EST 6:01 PM EST
Nautical Twilight 4:57 AM EST 6:35 PM EST
Astronomical Twilight 4:23 AM EST 7:09 PM EST
Moon 10:23 AM EST (3/8) 12:42 AM EST (3/8)
Length of Visible Light 12h 29m
Length of Day
11h 31m
First Quarter, 51% of the Moon is Illuminated
Mar 8
First Quarter
Mar 16
Full
Mar 23
Last Quarter
Mar 30
New
Apr 7
First Quarter

Hourly Weather History & Observations

Time (EST) Temp. Windchill Dew Point Humidity Pressure Visibility Wind Dir Wind Speed Gust Speed Precip Events Conditions
12:53 AM 21.9 °F - 18.0 °F 85% 29.95 in 10.0 mi Calm Calm - N/A   Clear
1:53 AM 16.0 °F - 15.1 °F 96% 29.92 in 10.0 mi Calm Calm - N/A   Partly Cloudy
2:53 AM 16.0 °F - 12.9 °F 88% 29.88 in 10.0 mi Calm Calm - N/A   Partly Cloudy
3:53 AM 16.0 °F - 12.0 °F 84% 29.86 in 7.0 mi Calm Calm - N/A   Partly Cloudy
4:16 AM 14.0 °F - 10.9 °F 88% 29.84 in 2.0 mi Calm Calm - N/A   Overcast
4:51 AM 15.8 °F - 10.4 °F 79% 29.82 in 0.2 mi Calm Calm - N/A Fog Light Freezing Fog
4:53 AM 15.1 °F - 12.0 °F 88% 29.83 in 0.2 mi Calm Calm - N/A Fog Light Freezing Fog
5:22 AM 17.1 °F - 14.0 °F 88% 29.81 in 0.1 mi Calm Calm - N/A Fog Light Freezing Fog
5:32 AM 16.0 °F - 12.9 °F 88% 29.80 in 0.1 mi Calm Calm - N/A Fog Light Freezing Fog
5:35 AM 17.1 °F - 14.0 °F 88% 29.80 in 0.2 mi Calm Calm - N/A Fog Light Freezing Fog
5:53 AM 16.0 °F 10.4 °F 12.9 °F 88% 29.81 in 0.2 mi NW 3.5 mph - N/A Fog Light Freezing Fog
6:26 AM 17.1 °F - 12.9 °F 84% 29.79 in 0.2 mi Calm Calm - N/A Fog Light Freezing Fog
6:53 AM 17.1 °F - 14.0 °F 88% 29.81 in 0.2 mi Calm Calm - N/A Fog Light Freezing Fog
7:06 AM 19.0 °F 13.9 °F 16.0 °F 88% 29.79 in 0.2 mi SSE 3.5 mph - N/A Fog Light Freezing Fog
7:36 AM 19.9 °F 12.1 °F 16.0 °F 85% 29.81 in 0.2 mi NNW 5.8 mph - N/A Fog Light Freezing Fog
7:48 AM 21.2 °F - 17.6 °F 86% 29.80 in 0.2 mi Calm Calm - N/A Fog Light Freezing Fog
7:53 AM 21.0 °F - 18.0 °F 88% 29.81 in 0.2 mi Calm Calm - N/A Fog Light Freezing Fog
8:53 AM 26.1 °F - 24.1 °F 92% 29.80 in 2.0 mi Calm Calm - N/A   Mostly Cloudy
8:55 AM 27.0 °F - 23.0 °F 85% 29.78 in 3.0 mi Calm Calm - N/A   Scattered Clouds
9:53 AM 28.9 °F - 24.1 °F 82% 29.77 in 8.0 mi Calm Calm - N/A   Mostly Cloudy
10:53 AM 35.1 °F 30.1 °F 21.9 °F 59% 29.75 in 10.0 mi NNW 5.8 mph - N/A   Mostly Cloudy
11:53 AM 37.9 °F 34.4 °F 21.0 °F 51% 29.73 in 10.0 mi North 4.6 mph - N/A   Mostly Cloudy
12:53 PM 42.1 °F 35.7 °F 21.9 °F 45% 29.70 in 10.0 mi NW 11.5 mph 17.3 mph N/A   Mostly Cloudy
1:53 PM 41.0 °F 33.1 °F 21.9 °F 47% 29.68 in 10.0 mi NNW 15.0 mph - N/A   Scattered Clouds
2:53 PM 39.9 °F 31.8 °F 25.0 °F 55% 29.69 in 10.0 mi NNW 15.0 mph - N/A   Mostly Cloudy
3:53 PM 39.0 °F 29.0 °F 23.0 °F 53% 29.70 in 10.0 mi NW 20.7 mph - N/A   Mostly Cloudy
4:53 PM 37.0 °F 27.7 °F 21.9 °F 54% 29.72 in 10.0 mi NW 16.1 mph - N/A   Partly Cloudy
5:53 PM 36.0 °F 28.0 °F 17.1 °F 46% 29.74 in 10.0 mi NW 11.5 mph - N/A   Partly Cloudy
6:53 PM 34.0 °F 25.0 °F 16.0 °F 48% 29.76 in 10.0 mi NW 12.7 mph - N/A   Clear
7:53 PM 30.0 °F 20.0 °F 17.1 °F 59% 29.79 in 10.0 mi NW 12.7 mph - N/A   Clear
8:53 PM 28.0 °F 18.1 °F 16.0 °F 61% 29.81 in 10.0 mi NNW 11.5 mph - N/A   Clear
9:53 PM 28.0 °F 17.5 °F 14.0 °F 56% 29.82 in 10.0 mi NNW 12.7 mph - N/A   Clear
10:53 PM 28.0 °F 17.5 °F 12.9 °F 53% 29.83 in 10.0 mi NW 12.7 mph - N/A   Partly Cloudy
11:53 PM 26.1 °F 16.2 °F 12.9 °F 58% 29.83 in 10.0 mi NNW 10.4 mph - N/A   Scattered Clouds